KAZEOSAT 1

Last updated on Sat Dec 13 2025 00:02:31 GMT+0000 (Coordinated Universal Time)

1 39731U 14024A 25346.30447267 .00000538 00000+0 17673-3 0 9999 2 39731 98.3429 58.2211 0001108 94.5930 265.5387 14.42062824611624
UTC large
Height (km)
Speed (km/s)
/
Latitude / Longitude
Inclination (degrees)
Orbital Period (minutes)
Azimuth
Elevation
Range (km)
Doppler Factor

Next 0 passes for location: London (51.5072 / 0.1276)

Sorry there are no passes over London.